Location: *
(46.1006°N, 1.8394°E)
Time: 05:53:28
(UTC+00:00)

NOSS 3-3 (A) - Pass Details

Date: 20 September 2019
Orbit: 849 x 1363 km, 63.4° (Epoch: 08 October)

Event Time Altitude Azimuth Distance (km) Brightness Sun altitude
Rises 18:29:37 0° 228° (SW) 3,467 7.5 -6.8°
Reaches altitude 10° 18:32:02 10° 231° (SW) 2,571 6.9 -7.2°
Maximum altitude 18:37:57 66° 314° (NW) 1,054 4.5 -8.2°
Drops below altitude 10° 18:44:40 10° 36° (NE) 2,892 6.2 -9.4°
Sets 18:47:31 0° 39° (NE) 3,932 6.9 -9.9°
